This demonstration page uses our WeatherBlox Daily Observations layout. Learn more.

Left ArrowRight Arrow

Hourly Observations for July 30, 2021

Temp ( °F °C ) Dew Point ( °F °C ) Humidity (%) Winds ( mph kmh ) Pressure ( in mb ) Visibility ( mi km ) Precip ( " mm )
12:15 am 00:15 Partly Cloudy with Mist and Fog 76 24.5 74 23.5 94 94 E 10 17 30.01 1016 5 8 N/A
12:35 am 00:35 Mostly Cloudy with Mist and Fog 76 24.5 74 23.5 94 94 E 9 15 30.01 1016 4 6 N/A
12:55 am 00:55 Mostly Cloudy with Mist and Fog 76 24.3 74 23.2 94 94 E 9 15 30.01 1016 4 6 N/A
1:15 am 01:15 Mostly Cloudy with Mist and Fog 76 24.3 74 23.4 95 95 E 10 17 30.01 1016 4 6 N/A
1:35 am 01:35 Cloudy with Mist and Fog 76 24.3 74 23.5 95 95 E 9 15 30.00 1016 4 6 N/A
1:55 am 01:55 Cloudy with Mist and Fog 76 24.3 74 23.5 95 95 E 8 13 30.00 1016 4 6 N/A
2:15 am 02:15 Cloudy with Mist and Fog 76 24.5 74 23.5 94 94 E 8 13 30.00 1016 4 6 N/A
2:35 am 02:35 Cloudy with Mist and Fog 76 24.5 74 23.6 95 95 ESE 9 15 29.99 1016 4 6 N/A
2:55 am 02:55 Cloudy with Mist and Fog 76 24.6 75 23.8 95 95 ESE 9 15 29.98 1015 4 6 N/A
3:15 am 03:15 Cloudy with Mist and Fog 76 24.6 75 23.8 95 95 ESE 10 17 29.98 1015 4 6 N/A
3:35 am 03:35 Cloudy with Mist and Fog 76 24.6 75 23.8 95 95 ESE 10 17 29.97 1015 4 6 N/A
3:55 am 03:55 Cloudy with Mist and Fog 76 24.5 75 23.7 95 95 ESE 9 15 29.98 1015 4 6 N/A
4:15 am 04:15 Cloudy with Mist and Fog 76 24.5 74 23.6 95 95 ESE 9 15 29.99 1016 4 6 N/A
4:35 am 04:35 Cloudy with Mist and Fog 76 24.5 74 23.6 95 95 ESE 6 9 29.99 1016 4 6 N/A
4:55 am 04:55 Cloudy with Mist and Fog 76 24.5 74 23.6 95 95 ESE 7 11 29.99 1016 3 5 N/A
5:15 am 05:15 Cloudy with Mist and Fog 76 24.3 74 23.6 96 96 ESE 6 9 29.99 1016 3 5 N/A
5:35 am 05:35 Cloudy with Mist and Fog 76 24.3 74 23.6 96 96 ESE 6 9 29.99 1016 4 6 N/A
5:55 am 05:55 Cloudy with Mist and Fog 76 24.3 74 23.5 95 95 E 6 9 29.99 1016 3 5 N/A
6:15 am 06:15 Cloudy with Mist and Fog 76 24.2 74 23.5 96 96 ESE 7 11 29.99 1016 3 5 N/A
6:35 am 06:35 Cloudy with Mist and Fog 75 24 74 23.2 95 95 ESE 8 13 29.99 1016 3 5 N/A
6:55 am 06:55 Cloudy with Mist and Fog 75 24 74 23.2 95 95 SE 7 11 29.98 1015 3 4 N/A
7:15 am 07:15 Mostly Cloudy with Mist and Fog 75 23.8 74 23.1 96 96 SE 7 11 30.00 1016 3 5 N/A
7:35 am 07:35 Cloudy with Mist and Fog 75 24 74 23.1 95 95 SE 8 13 30.00 1016 3 5 N/A
7:55 am 07:55 Cloudy with Mist and Fog 75 24.1 74 23.2 95 95 SE 6 9 30.00 1016 4 6 N/A
8:15 am 08:15 Cloudy with Mist and Fog 76 24.5 74 23.2 92 92 ESE 9 15 30.00 1016 5 8 N/A
8:35 am 08:35 Cloudy with Mist and Fog 76 24.7 73 23 90 90 SE 7 11 30.00 1016 5 8 N/A
8:55 am 08:55 Cloudy 78 25.4 74 23.3 88 88 SE 7 11 29.98 1015 7 11 N/A
9:15 am 09:15 Cloudy 78 25.7 74 23.4 87 87 SSE 6 9 29.98 1015 7 11 N/A
9:35 am 09:35 Partly Cloudy 79 26.2 74 23.5 85 85 SSE 7 11 29.97 1015 7 11 N/A
9:55 am 09:55 Sunny 81 27 74 23.4 81 81 SSE 6 9 29.96 1015 10 16 N/A
10:15 am 10:15 Sunny 82 28 74 23.5 77 77 S 7 11 29.95 1014 10 16 N/A
10:35 am 10:35 Sunny 83 28.4 74 23.2 73 73 SSE 6 9 29.94 1014 10 16 N/A
10:55 am 10:55 Sunny 84 29 73 22.7 69 69 S 6 9 29.94 1014 10 16 N/A
11:15 am 11:15 Partly Cloudy 85 29.7 73 22.6 66 66 S 5 7 29.94 1014 10 16 N/A
11:35 am 11:35 Partly Cloudy 86 30.2 73 22.6 64 64 SSE 6 9 29.94 1014 10 16 N/A
11:55 am 11:55 Mostly Cloudy 87 30.8 74 23.1 64 64 SSE 7 11 29.93 1014 10 16 N/A
12:15 pm 12:15 Mostly Cloudy 89 31.4 72 22.1 58 58 S 8 13 29.92 1013 10 16 N/A
12:35 pm 12:35 Partly Cloudy 89 31.7 72 22.2 57 57 SSE 7 11 29.91 1013 10 16 N/A
12:55 pm 12:55 Partly Cloudy 89 31.9 73 22.6 58 58 S 6 9 29.91 1013 10 16 N/A
1:15 pm 13:15 Sunny 90 32 72 22.2 56 56 SSE 5 7 29.91 1013 10 16 N/A
1:35 pm 13:35 Sunny 90 32.2 73 22.7 57 57 SSE 6 9 29.91 1013 10 16 N/A
1:55 pm 13:55 Mostly Cloudy 90 32.1 71 21.8 54 54 S 5 7 29.90 1013 10 16 N/A
2:15 pm 14:15 Mostly Cloudy 90 32.2 71 21.6 54 54 N N/A 29.90 1013 10 16 N/A
2:35 pm 14:35 Partly Cloudy 91 32.9 72 22.1 53 53 SE 6 9 29.88 1012 10 16 N/A
2:55 pm 14:55 Sunny 91 32.8 72 22.2 54 54 E 5 7 29.89 1012 10 16 N/A
3:15 pm 15:15 Sunny 90 32.3 74 23.3 59 59 ENE 5 7 29.88 1012 10 16 N/A
3:35 pm 15:35 Mostly Cloudy 85 29.6 78 25.6 79 79 NE 10 17 29.90 1013 7 11 N/A
3:55 pm 15:55 Partly Cloudy 86 30.2 79 26.2 79 79 NE 13 20 29.90 1012 10 16 N/A
4:15 pm 16:15 Partly Cloudy 86 30.1 80 26.5 81 81 NE 13 20 29.89 1012 7 11 N/A
4:35 pm 16:35 Partly Cloudy 86 30.1 80 26.4 81 81 ENE 12 19 29.89 1012 7 11 N/A
4:55 pm 16:55 Sunny 87 30.4 80 26.4 79 79 E 10 17 29.88 1012 7 11 N/A
5:15 pm 17:15 Sunny 88 31 80 26.7 78 78 E 9 15 29.87 1011 10 16 N/A
5:35 pm 17:35 Sunny 88 31.2 79 26.1 74 74 E 9 15 29.86 1011 10 16 N/A
5:55 pm 17:55 Sunny 89 31.6 79 26.3 74 74 E 10 17 29.85 1011 10 16 N/A
6:15 pm 18:15 Sunny 89 31.6 79 26 72 72 E 9 15 29.85 1011 10 16 N/A
6:35 pm 18:35 Sunny 89 31.7 78 25.7 71 71 E 9 15 29.84 1011 10 16 N/A
6:55 pm 18:55 Sunny 89 31.5 78 25.8 72 72 ESE 8 13 29.84 1010 10 16 N/A
7:15 pm 19:15 Sunny 88 31.2 78 25.7 73 73 ESE 7 11 29.84 1010 10 16 N/A
7:35 pm 19:35 Sunny 87 30.7 78 25.7 75 75 E 6 9 29.84 1011 7 11 N/A
7:55 pm 19:55 Sunny 86 30 78 25.7 78 78 E 6 9 29.85 1011 10 16 N/A
8:15 pm 20:15 Sunny 84 29 78 25.8 83 83 E 6 9 29.86 1011 10 16 N/A
8:35 pm 20:35 Sunny 83 28.4 78 25.5 84 84 ESE 6 9 29.85 1011 10 16 N/A
8:55 pm 20:55 Clear 82 27.7 76 24.3 82 82 SE 6 9 29.86 1011 7 11 N/A
9:15 pm 21:15 Clear 78 25.8 75 23.7 88 88 E 7 11 29.87 1012 7 11 N/A
9:35 pm 21:35 Clear 78 25.8 74 23.5 87 87 ESE 6 9 29.87 1012 10 16 N/A
9:55 pm 21:55 Clear 78 25.5 74 23.1 87 87 ESE 5 7 29.87 1012 10 16 N/A
10:15 pm 22:15 Clear 76 24.6 73 22.6 89 89 E 7 11 29.89 1012 10 16 N/A
10:35 pm 22:35 Clear 77 25 73 22.8 88 88 ENE 5 7 29.90 1012 10 16 N/A
10:55 pm 22:55 Partly Cloudy 76 24.5 73 23 91 91 ENE 5 7 29.90 1013 10 16 N/A
11:15 pm 23:15 Partly Cloudy 76 24.7 73 22.5 88 88 E 5 7 29.90 1012 10 16 N/A
11:35 pm 23:35 Mostly Cloudy 75 23.9 72 22.3 91 91 NE 7 11 29.93 1013 10 16 N/A
11:55 pm 23:55 Mostly Cloudy 75 24.1 73 22.5 91 91 NE 7 11 29.92 1013 10 16 N/A

Powered by AerisWeather